Temperature
22 21 21 21 21 22 23 24 25 25 25 25 25 25 24 22 21 19 18 18 18 18 18 18 17 17 17 17 17 17 17 17 17 17 17 17 17 17 17 17 17 17 17 17 17 17 17 17 17
21 21 21 22 22 23 24 24 24 25 25 25 25 24 24 22 20 19 19 18 18 18 18 18 17 17 17 17 17 17 17 17 17 17 17 17 17 17 17 17 17 17 17 17 17 17 17 17 17
21 22 22 23 23 23 24 24 24 25 25 25 25 24 23 21 20 19 18 18 18 17 17 18 17 17 17 17 17 17 17 17 17 17 17 17 17 17 16 17 17 17 17 17 17 17 17 17 17
22 22 23 23 23 24 25 25 25 25 25 25 25 23 21 20 20 19 18 18 18 17 17 18 17 17 17 17 17 17 17 17 17 17 17 17 17 17 16 17 17 16 17 17 17 17 17 17 17
22 23 23 23 24 25 25 26 25 25 25 24 24 22 20 20 19 19 18 18 18 17 17 17 17 17 17 17 17 17 17 17 17 17 16 16 16 17 17 17 17 16 17 17 17 17 17 17 17
23 24 23 23 24 25 26 25 25 25 25 24 24 22 20 19 19 19 18 18 18 17 17 17 17 17 17 17 17 17 17 17 17 16 16 16 16 16 17 17 17 17 17 17 17 17 17 17 17
24 23 23 24 24 24 25 25 25 25 24 24 24 22 20 19 19 19 18 18 18 18 17 17 17 17 17 17 17 17 17 17 16 16 16 16 16 16 16 16 16 16 16 17 16 16 16 16 16
24 23 24 24 24 24 25 25 25 24 24 24 23 22 20 19 19 19 18 18 18 18 18 17 17 17 17 17 17 17 17 17 17 16 16 16 16 16 16 16 16 16 16 16 16 16 16 16 16
24 23 23 24 24 24 25 25 25 24 24 23 22 22 20 19 19 19 18 18 18 18 18 17 17 17 17 17 17 17 17 17 17 16 16 16 16 16 16 16 16 16 16 16 16 16 16 16 16
24 22 23 25 25 25 25 25 24 24 23 22 21 21 20 19 19 19 18 18 18 18 18 18 18 17 17 17 17 17 16 16 16 16 16 16 16 16 16 16 16 16 16 16 16 16 16 16 16
25 24 24 25 25 25 25 24 24 23 22 22 21 20 20 19 19 19 18 18 18 18 18 18 18 17 17 17 17 17 16 16 16 16 16 16 16 16 16 16 16 16 16 16 16 16 16 16 16
25 25 25 25 25 25 24 24 23 22 22 21 21 20 20 19 19 19 19 18 18 18 18 18 18 17 17 17 17 17 16 16 16 16 16 16 16 16 16 16 16 16 16 16 16 16 16 16 16
25 25 25 24 24 24 24 23 23 22 21 21 20 20 19 19 19 19 19 18 18 18 18 17 17 17 17 17 17 16 16 16 16 16 16 16 16 16 16 16 16 16 16 16 16 16 16 15 15
25 25 25 24 24 24 24 23 22 22 21 21 20 20 20 19 19 19 19 19 18 18 18 17 17 17 17 17 17 16 16 16 16 16 16 16 16 16 16 16 15 15 16 16 16 16 16 15 15
25 25 24 24 24 24 24 22 22 22 21 21 20 20 20 19 19 19 19 18 18 18 18 17 17 17 17 17 16 16 16 16 16 16 16 16 16 16 16 16 15 15 15 15 15 15 15 15 15
25 24 23 24 24 24 23 21 22 22 21 21 20 20 19 19 19 19 19 18 18 18 18 17 17 17 17 17 16 16 16 16 16 16 16 16 16 16 16 15 15 15 15 15 15 15 15 15 15
24 23 23 24 25 24 23 21 22 22 21 21 20 20 20 19 19 19 18 18 18 18 17 17 17 17 17 16 16 16 16 16 16 16 16 16 16 15 15 15 15 15 15 15 15 15 15 15 15
23 24 24 24 25 24 23 22 22 22 22 21 21 20 19 19 19 18 18 18 18 17 17 17 17 17 17 16 16 16 16 16 16 15 15 15 15 15 15 15 15 15 15 15 15 15 15 15 15
25 24 24 24 25 24 23 22 22 22 22 21 21 20 19 19 18 18 18 18 17 17 17 17 17 16 16 16 16 16 16 15 15 15 15 15 15 15 15 15 15 15 15 15 15 15 15 15 15
24 24 24 24 25 24 23 22 23 22 21 21 21 20 19 19 18 18 18 17 17 17 17 17 17 16 16 16 16 16 15 15 15 15 15 15 15 15 15 15 15 15 15 14 14 14 14 14 14
24 24 24 24 24 24 23 21 22 22 22 21 21 20 19 19 18 18 17 17 17 17 17 17 16 16 16 16 16 15 15 15 15 15 15 15 15 15 15 15 14 14 14 14 14 14 14 14 14
23 24 24 24 23 22 23 21 21 22 21 21 21 20 20 19 19 18 18 17 17 17 17 16 16 16 16 16 16 15 15 15 15 15 15 15 14 14 14 14 14 14 14 14 14 14 14 14 14
24 24 24 24 23 22 23 22 21 22 21 21 21 20 20 19 19 18 17 17 17 16 16 16 16 16 16 16 16 15 15 15 15 15 14 14 14 14 14 14 14 14 14 14 14 14 14 14 14
24 24 24 24 23 21 22 22 21 21 22 21 21 20 20 19 19 18 17 17 17 16 16 16 16 16 16 16 15 15 15 15 15 14 14 14 14 14 14 14 14 14 14 14 14 14 14 14 14
24 22 21 21 21 21 23 22 21 22 22 22 21 21 20 19 19 18 17 17 16 16 16 16 16 15 15 15 15 15 15 15 15 14 14 14 14 14 14 14 14 14 14 14 14 14 13 13 13
23 23 21 21 21 22 23 22 21 22 22 22 21 20 20 19 18 18 18 17 16 16 16 16 15 15 15 15 15 15 15 15 15 14 14 14 14 14 14 14 14 14 14 14 14 13 13 13 13
23 23 24 23 22 22 22 22 22 22 21 21 21 20 20 19 18 18 17 17 16 16 16 15 15 15 15 15 15 15 15 14 14 14 14 14 14 14 14 14 14 14 13 13 13 13 13 13 13
24 23 23 22 21 21 22 22 21 20 21 21 21 20 20 19 18 18 17 17 16 16 15 15 15 15 15 15 14 14 14 14 14 14 14 14 14 14 14 14 13 13 13 13 13 13 13 13 13
23 23 23 22 22 21 20 20 22 21 21 21 21 20 20 19 18 18 17 17 16 16 15 15 15 15 15 14 14 14 14 14 14 14 14 13 13 13 13 13 13 13 13 13 13 13 13 13 13
24 23 23 21 21 21 20 20 23 22 22 21 20 20 19 19 18 18 17 16 16 15 15 15 15 14 14 14 14 14 14 13 13 13 13 13 13 13 13 13 13 13 12 12 12 12 12 12 12
Wind_Speed
9 10 7 2 3 2 2 5 7 7 7 8 8 8 11 13 8 7 3 6 9 9 10 10 9 9 9 9 8 8 8 9 9 10 10 10 10 11 11 11 11 11 12 12 12 12 12 12 11
9 5 4 3 2 0 3 6 8 8 7 5 6 9 11 11 10 7 4 7 9 9 10 10 9 9 9 9 8 8 8 8 9 9 10 10 11 11 11 12 12 12 12 12 12 12 13 13 12
10 6 4 3 1 2 4 7 8 8 6 5 6 9 8 7 8 5 6 7 9 10 12 11 10 9 9 9 9 9 9 9 9 9 10 10 11 11 12 12 12 12 12 12 12 12 12 12 11
5 3 3 1 3 5 7 6 7 7 6 5 6 8 8 8 6 8 8 8 9 10 12 11 10 10 9 10 10 10 10 10 10 10 10 11 11 12 12 12 12 12 12 12 12 12 12 12 11
4 3 2 0 2 4 6 6 6 6 5 6 8 9 8 9 10 10 7 7 9 10 11 11 11 10 10 11 11 12 11 11 11 11 11 11 11 12 12 12 12 12 12 12 12 12 12 11 11
3 3 2 1 2 4 5 5 5 6 7 6 6 9 7 8 8 7 7 7 8 9 10 12 11 11 11 11 11 11 11 12 12 11 11 11 11 11 12 12 12 12 12 11 11 11 11 11 11
3 2 1 1 2 4 5 5 5 5 5 4 4 7 8 8 6 7 7 7 8 8 9 9 11 11 11 11 10 10 10 10 11 10 10 10 10 11 11 12 12 12 12 12 11 11 10 10 10
3 2 2 1 2 4 4 4 4 5 5 5 5 5 7 8 8 7 7 7 6 6 7 7 9 10 10 10 10 9 8 9 9 9 9 9 9 10 10 11 11 11 11 11 10 10 9 8 8
3 1 1 2 2 3 4 4 4 5 6 6 8 10 10 11 8 7 7 6 4 5 5 4 5 7 8 9 9 9 8 7 7 7 7 7 7 8 9 10 10 10 9 8 7 7 7 6 5
2 0 2 3 4 3 5 4 3 4 6 6 8 11 12 10 8 7 6 6 5 4 4 4 4 5 6 6 7 6 6 7 6 6 6 6 7 8 9 9 8 7 7 6 4 4 4 4 2
1 1 1 3 5 3 4 4 4 4 3 4 7 9 10 9 7 6 6 5 5 4 4 4 4 4 4 4 4 3 4 4 3 4 6 6 6 7 7 6 6 5 5 3 3 2 2 3 3
1 1 1 3 4 3 4 4 5 5 4 6 7 8 8 8 7 5 6 5 5 5 4 4 4 4 4 4 3 3 2 2 2 4 6 5 3 3 4 3 3 4 3 3 3 2 4 4 6
2 1 1 1 2 2 4 4 4 4 6 7 8 8 7 6 6 5 5 6 6 6 5 4 3 3 3 4 2 3 2 2 3 3 4 5 2 2 3 3 3 3 3 2 2 3 4 5 6
1 1 1 2 2 2 3 3 3 3 6 6 7 6 6 5 5 5 4 4 5 5 5 4 4 3 3 3 2 2 3 3 3 2 3 5 4 3 3 3 2 2 2 2 3 4 4 4 5
4 4 4 4 4 3 2 1 3 4 6 5 6 6 5 5 4 4 4 3 4 5 5 4 4 3 3 3 3 3 2 3 2 1 1 4 5 4 3 3 2 2 2 4 4 4 4 4 4
6 5 5 4 5 4 3 2 3 5 6 5 5 6 5 5 4 4 4 3 4 4 5 4 3 4 4 3 2 2 3 3 2 2 2 3 5 5 3 2 2 3 3 3 3 2 3 4 3
6 5 5 4 6 5 4 2 5 6 7 6 5 5 5 5 4 4 4 4 4 4 4 3 3 3 3 2 2 2 3 2 2 2 2 3 3 5 4 2 1 4 3 2 2 3 3 3 2
4 4 4 3 4 5 4 3 5 5 6 6 5 5 5 5 4 4 5 4 4 3 3 3 3 3 3 2 2 2 2 2 2 2 2 3 3 4 4 1 2 4 3 2 2 2 2 2 1
5 5 4 2 2 3 3 3 4 5 5 5 5 5 5 5 4 5 5 4 4 3 3 3 3 3 2 2 2 2 1 1 2 1 2 3 3 4 3 2 2 3 2 2 2 2 2 1 1
6 6 5 1 2 2 3 3 3 5 5 5 5 5 5 5 5 5 5 4 3 3 3 3 3 3 3 2 2 1 2 1 2 2 2 1 2 3 2 2 2 2 2 2 2 2 1 1 1
7 6 4 3 2 4 4 5 5 6 6 5 5 5 5 6 7 5 5 4 3 3 2 2 3 3 3 2 2 2 2 1 2 2 1 1 2 2 1 2 2 1 2 1 1 1 1 0 2
6 5 5 5 5 4 6 4 5 6 7 6 6 5 5 5 6 6 5 4 4 3 2 2 2 3 3 3 3 2 1 1 1 2 1 1 2 2 1 1 1 1 1 1 1 1 1 1 1
5 6 7 8 8 8 8 5 3 6 6 7 6 6 5 6 6 6 6 4 3 3 2 1 2 3 3 2 3 2 2 2 1 2 2 2 2 2 2 1 1 1 1 2 1 1 1 1 0
5 7 10 9 7 7 8 6 2 4 6 7 7 7 6 6 6 6 6 5 4 4 3 2 2 2 2 2 2 3 3 2 2 2 2 1 1 1 1 1 1 1 1 2 1 1 1 1 1
6 6 4 4 5 4 4 2 1 4 5 5 6 7 7 6 6 5 6 5 4 4 4 3 2 2 2 2 2 2 3 3 3 2 2 2 2 1 2 2 1 1 1 1 1 1 1 1 1
7 7 4 4 4 3 2 2 4 7 7 6 5 6 7 6 5 5 6 6 5 5 4 3 2 2 2 1 1 1 2 2 2 2 2 2 2 2 2 2 2 1 1 1 1 1 1 1 1
7 6 7 7 9 6 2 3 6 7 7 5 5 5 6 6 5 5 5 6 5 4 5 4 3 2 1 1 0 1 2 2 1 2 1 1 1 1 2 1 2 1 1 1 1 0 0 1 1
7 6 5 4 4 4 3 2 4 7 6 6 6 5 5 5 5 4 4 4 5 4 4 4 3 3 2 2 1 1 1 1 1 1 1 1 0 0 1 2 2 2 2 2 2 1 1 1 1
7 7 6 5 4 4 3 1 4 6 6 5 5 5 5 5 5 5 4 4 4 4 3 3 2 2 2 2 2 2 1 1 1 1 0 1 1 0 1 1 1 2 2 1 1 2 2 2 2
6 7 6 4 5 5 3 0 4 6 6 5 5 5 4 5 4 4 5 4 4 3 3 3 2 1 1 2 1 1 1 1 1 1 1 0 1 1 0 0 0 0 0 0 1 2 2 2 2
Wind_Direction
262 244 242 254 259 227 53 64 71 58 55 50 46 53 63 53 49 88 134 98 97 100 101 91 81 76 74 71 69 68 75 76 76 75 72 72 72 70 66 63 65 64 64 64 63 65 64 64 63
270 266 258 244 263 355 71 78 71 69 75 72 63 62 71 66 71 96 108 92 99 100 98 92 89 81 76 72 67 71 81 84 84 82 77 76 75 72 69 66 67 66 66 65 65 67 65 64 62
260 260 265 253 356 42 62 73 88 85 75 64 74 62 55 66 81 99 104 104 98 96 96 96 94 86 80 73 70 77 87 90 90 89 84 81 79 75 73 70 68 67 68 68 68 69 67 63 62
258 255 250 265 46 49 73 86 92 91 80 63 80 82 68 56 82 105 112 113 105 101 100 102 99 91 84 75 73 81 87 87 90 93 88 83 81 77 74 72 70 68 68 69 69 69 67 64 63
234 254 236 145 72 66 73 80 91 92 87 69 71 89 88 76 88 103 108 107 106 105 108 108 104 98 92 84 77 80 82 86 93 95 92 87 83 79 76 75 72 71 70 70 70 69 69 67 63
266 253 252 106 85 82 73 71 77 82 86 89 94 103 96 98 98 106 109 104 103 107 112 116 114 108 101 94 85 81 83 86 93 95 92 90 88 84 82 80 77 74 73 73 73 72 72 70 66
279 304 301 84 85 77 70 70 81 79 76 68 77 97 115 116 121 117 116 109 110 114 118 128 132 126 116 108 100 94 94 93 96 99 98 98 95 92 88 85 82 78 77 78 78 77 75 74 70
283 301 309 341 75 75 71 74 84 85 75 60 52 90 120 129 128 122 116 109 115 121 130 136 140 140 136 130 121 115 110 108 110 114 115 111 106 101 97 92 88 86 83 82 82 82 80 77 72
286 281 343 14 52 82 88 95 89 84 87 69 56 78 111 124 127 123 116 105 103 104 106 119 128 132 134 134 131 137 136 135 134 138 140 139 129 118 105 97 97 96 94 92 90 90 90 87 81
198 351 4 15 56 72 85 83 96 93 91 83 81 92 112 125 126 126 123 117 109 107 110 100 96 91 103 107 127 144 145 150 156 148 144 136 120 111 109 113 115 115 114 113 114 115 110 109 97
145 109 1 20 60 55 76 78 72 84 97 115 116 120 127 128 126 129 122 120 117 111 96 104 102 94 93 99 112 120 123 133 138 124 116 106 108 117 122 133 137 139 144 142 122 126 99 102 95
148 94 33 39 53 49 76 77 67 62 69 95 105 119 126 131 134 132 126 123 122 108 98 97 96 95 96 100 102 101 101 110 92 96 99 107 109 110 116 116 131 124 106 86 91 84 68 55 63
171 171 124 103 98 79 81 84 89 83 88 96 106 111 121 132 134 132 129 137 131 123 115 93 91 93 97 94 85 92 83 99 93 89 102 102 103 97 109 103 93 95 96 102 85 72 65 60 51
177 192 179 173 165 152 113 117 132 118 118 119 118 117 124 118 123 129 128 121 118 120 126 117 103 88 92 96 93 86 82 89 87 76 103 107 106 97 98 96 89 96 105 93 86 81 73 72 69
212 221 210 208 207 187 145 170 149 139 126 127 132 130 128 125 124 118 117 129 126 126 119 120 124 113 100 92 86 85 87 86 80 59 61 101 109 106 91 101 96 97 77 76 66 63 76 80 75
237 234 223 201 191 180 185 212 134 148 139 133 140 140 137 135 131 122 122 109 104 108 118 125 123 111 96 91 91 93 88 77 69 61 23 82 96 98 83 81 93 92 72 68 73 55 61 69 69
237 234 221 194 187 178 188 182 151 158 150 148 150 147 144 139 126 124 120 107 96 98 110 126 116 110 116 116 100 79 91 92 82 71 41 42 77 96 92 71 83 83 77 61 59 68 71 78 72
253 255 247 216 174 165 182 182 166 167 161 155 154 146 142 137 138 129 121 118 111 110 113 102 113 110 114 95 85 80 74 82 74 65 58 32 41 80 86 74 76 77 65 50 50 65 63 87 97
284 275 268 243 155 166 201 203 179 168 167 158 157 151 148 146 143 127 123 125 126 121 108 104 115 101 96 97 104 103 88 93 87 70 58 35 29 61 92 85 77 83 83 70 65 72 55 38 47
267 268 272 244 160 196 208 233 204 172 173 169 165 160 161 153 144 137 133 136 145 142 129 134 115 111 100 84 99 121 120 117 108 89 69 65 51 49 73 89 83 85 88 75 62 79 60 1 29
263 271 282 287 273 237 229 242 221 176 169 164 170 166 167 160 151 152 150 150 146 130 117 112 122 119 124 127 95 77 79 87 100 110 100 64 84 83 81 101 107 109 112 126 134 95 92 354 331
270 287 287 281 268 255 236 252 226 187 172 177 177 171 170 159 155 156 153 151 153 141 128 145 136 127 126 124 118 125 127 139 142 137 142 137 104 105 100 122 135 141 127 127 162 137 130 130 308
278 290 281 272 269 270 254 253 219 173 172 179 173 169 167 166 164 154 152 156 162 146 144 158 121 111 117 132 136 155 142 138 127 129 145 152 132 133 128 146 153 161 160 159 164 137 123 128 217
273 272 263 253 254 260 251 241 214 170 174 166 163 168 165 158 157 150 148 156 157 140 139 135 130 121 126 125 143 157 151 149 148 160 164 159 144 158 159 162 161 180 164 159 165 148 135 153 248
247 267 267 240 220 236 214 208 151 116 116 119 141 153 154 155 151 150 154 154 150 149 151 156 150 142 127 144 158 151 166 166 167 177 176 161 170 188 197 169 162 171 168 165 157 139 151 229 239
250 249 261 284 285 287 219 181 122 108 97 102 115 133 149 153 152 159 162 154 156 154 152 158 157 153 146 160 177 164 144 149 141 171 180 178 188 194 201 187 173 158 144 158 143 172 215 223 240
261 258 273 287 288 281 235 146 131 127 130 133 137 133 143 150 156 164 161 151 152 155 158 163 161 157 152 178 184 165 137 125 153 179 175 152 186 187 186 196 167 157 140 145 118 132 234 239 236
249 277 278 271 293 287 268 208 157 153 154 152 147 141 143 144 151 156 149 151 156 154 158 158 166 173 169 173 180 177 160 161 173 162 139 156 211 160 216 220 186 186 191 181 172 175 192 215 242
227 234 253 262 262 281 290 2 92 126 124 129 133 137 143 144 147 157 148 147 150 148 148 149 161 167 179 194 189 186 189 187 164 131 203 208 218 226 237 235 203 211 205 204 191 198 194 212 240
249 252 254 264 277 277 275 18 91 111 116 114 111 116 123 129 139 146 142 144 145 150 157 161 171 191 201 198 185 185 174 152 155 167 168 203 219 210 226 153 117 203 226 261 240 237 221 212 224
Height
1487 1487 1487 1489 1489 1491 1491 1485 1481 1483 1484 1486 1487 1487 1491 1495 1500 1511 1510 1508 1507 1507 1507 1507 1506 1506 1506 1505 1505 1504 1504 1505 1505 1506 1507 1507 1508 1508 1509 1508 1508 1508 1508 1508 1508 1508 1508 1508 1509
1487 1488 1489 1489 1491 1496 1493 1485 1485 1485 1487 1488 1489 1490 1493 1499 1503 1507 1508 1508 1508 1508 1507 1507 1507 1507 1506 1505 1503 1502 1502 1503 1505 1506 1507 1508 1509 1509 1510 1510 1510 1510 1510 1509 1509 1509 1509 1510 1510
1487 1489 1490 1487 1489 1494 1493 1486 1486 1487 1488 1489 1490 1493 1497 1502 1505 1507 1508 1509 1509 1509 1508 1508 1508 1508 1507 1504 1501 1499 1499 1502 1504 1506 1508 1509 1510 1510 1511 1511 1511 1511 1511 1511 1511 1511 1511 1511 1511
1489 1490 1489 1489 1492 1487 1486 1486 1486 1488 1490 1490 1491 1496 1502 1505 1506 1508 1509 1510 1510 1510 1509 1509 1509 1508 1507 1505 1502 1498 1498 1500 1502 1505 1508 1509 1510 1511 1512 1512 1512 1512 1512 1512 1512 1512 1513 1513 1513
1490 1489 1490 1492 1490 1485 1483 1485 1487 1489 1491 1492 1494 1499 1505 1507 1508 1508 1509 1510 1511 1511 1511 1511 1510 1510 1509 1507 1505 1503 1501 1500 1502 1505 1509 1511 1512 1512 1513 1514 1514 1514 1514 1513 1514 1514 1514 1514 1515
1490 1487 1493 1495 1491 1485 1485 1487 1488 1490 1492 1494 1496 1500 1506 1508 1509 1510 1510 1512 1512 1512 1512 1512 1512 1512 1511 1510 1509 1507 1506 1505 1506 1508 1511 1512 1513 1514 1515 1515 1515 1515 1515 1515 1515 1515 1516 1516 1516
1490 1489 1492 1491 1491 1489 1487 1488 1490 1492 1493 1495 1496 1500 1506 1508 1509 1511 1512 1513 1513 1513 1513 1514 1514 1513 1513 1513 1512 1511 1511 1510 1511 1512 1513 1514 1515 1516 1516 1517 1517 1517 1517 1517 1517 1517 1517 1518 1518
1489 1490 1491 1490 1492 1492 1489 1490 1491 1493 1496 1497 1498 1500 1506 1509 1510 1511 1513 1514 1514 1515 1515 1515 1515 1515 1515 1515 1515 1514 1514 1514 1515 1515 1516 1516 1517 1518 1518 1519 1519 1519 1519 1519 1519 1519 1520 1520 1520
1489 1493 1496 1492 1492 1491 1490 1491 1493 1495 1497 1499 1500 1502 1505 1508 1510 1512 1513 1515 1516 1516 1517 1517 1517 1518 1518 1517 1517 1517 1517 1517 1517 1518 1518 1519 1519 1520 1520 1521 1521 1521 1521 1521 1521 1522 1522 1522 1523
1489 1495 1494 1489 1488 1490 1491 1492 1494 1496 1498 1501 1503 1505 1507 1509 1511 1512 1514 1515 1516 1517 1518 1518 1519 1519 1519 1519 1519 1519 1519 1519 1519 1520 1520 1521 1522 1522 1523 1523 1523 1523 1523 1524 1524 1524 1524 1524 1525
1487 1491 1490 1489 1489 1491 1492 1494 1495 1497 1500 1502 1504 1506 1508 1510 1511 1513 1514 1516 1517 1518 1518 1519 1520 1520 1520 1520 1520 1520 1521 1521 1522 1522 1523 1523 1523 1524 1524 1524 1525 1525 1525 1526 1526 1526 1526 1527 1527
1488 1489 1489 1490 1491 1492 1493 1495 1497 1499 1502 1503 1505 1506 1508 1510 1512 1513 1515 1516 1517 1518 1519 1520 1520 1521 1521 1521 1521 1522 1522 1523 1523 1524 1524 1524 1525 1525 1526 1526 1526 1527 1527 1527 1528 1528 1528 1528 1529
1488 1489 1490 1492 1493 1494 1495 1497 1500 1502 1503 1504 1505 1507 1509 1511 1512 1514 1516 1517 1518 1518 1519 1520 1521 1521 1521 1521 1522 1522 1523 1523 1524 1524 1525 1525 1526 1527 1527 1527 1528 1528 1528 1529 1529 1530 1530 1530 1530
1488 1489 1490 1492 1493 1494 1495 1498 1500 1502 1504 1505 1506 1508 1510 1511 1513 1514 1516 1517 1518 1518 1519 1520 1521 1521 1522 1522 1522 1523 1523 1524 1524 1525 1525 1526 1527 1527 1528 1528 1529 1529 1529 1530 1530 1531 1531 1531 1531
1488 1489 1490 1491 1492 1493 1495 1499 1499 1502 1503 1505 1506 1508 1510 1511 1513 1514 1515 1517 1518 1518 1519 1520 1521 1521 1522 1522 1523 1523 1524 1524 1525 1525 1526 1527 1527 1528 1528 1529 1529 1530 1531 1531 1531 1532 1532 1532 1532
1486 1490 1495 1490 1490 1492 1498 1505 1500 1500 1502 1504 1506 1508 1510 1511 1513 1514 1515 1516 1517 1518 1519 1520 1521 1521 1522 1522 1523 1523 1524 1524 1525 1525 1526 1527 1527 1528 1528 1529 1530 1530 1531 1531 1532 1532 1533 1533 1533
1488 1493 1493 1490 1487 1489 1495 1501 1498 1500 1501 1504 1506 1508 1509 1511 1512 1514 1515 1516 1517 1518 1519 1519 1520 1521 1521 1522 1522 1523 1524 1524 1525 1525 1526 1527 1527 1528 1528 1529 1530 1530 1531 1531 1532 1532 1533 1533 1533
1493 1490 1489 1489 1485 1488 1493 1497 1497 1498 1500 1502 1504 1506 1508 1510 1512 1514 1515 1516 1516 1517 1518 1519 1519 1520 1521 1522 1522 1523 1524 1524 1524 1525 1525 1526 1527 1527 1528 1528 1529 1530 1530 1531 1532 1532 1532 1533 1534
1484 1487 1489 1486 1483 1488 1493 1494 1494 1496 1498 1500 1503 1505 1507 1509 1512 1513 1514 1515 1516 1517 1517 1518 1518 1519 1520 1521 1521 1522 1523 1523 1524 1524 1525 1525 1526 1527 1527 1528 1528 1529 1530 1530 1531 1532 1532 1533 1533
1484 1488 1488 1484 1482 1487 1492 1493 1492 1493 1496 1499 1501 1503 1506 1508 1510 1512 1513 1514 1515 1516 1517 1518 1518 1519 1520 1520 1520 1522 1522 1523 1523 1524 1524 1525 1525 1526 1526 1527 1528 1528 1529 1529 1530 1531 1532 1533 1533
1485 1487 1487 1487 1484 1484 1491 1496 1492 1491 1494 1497 1499 1502 1504 1506 1508 1510 1512 1513 1514 1515 1516 1517 1518 1518 1518 1519 1520 1521 1521 1522 1522 1523 1524 1524 1524 1525 1526 1526 1527 1527 1528 1529 1530 1530 1531 1532 1533
1488 1482 1483 1485 1491 1493 1490 1504 1493 1487 1491 1494 1497 1500 1502 1504 1506 1508 1510 1512 1513 1514 1516 1516 1517 1517 1518 1519 1519 1520 1520 1521 1522 1522 1523 1523 1524 1524 1524 1525 1526 1527 1527 1528 1529 1529 1530 1531 1531
1484 1481 1482 1484 1488 1491 1488 1495 1493 1485 1491 1492 1494 1497 1500 1503 1505 1507 1509 1511 1512 1513 1514 1515 1516 1517 1517 1518 1518 1519 1519 1520 1521 1521 1522 1522 1523 1523 1524 1524 1524 1525 1526 1526 1527 1528 1529 1530 1531
1480 1482 1481 1481 1487 1499 1488 1493 1495 1487 1487 1488 1491 1494 1497 1500 1503 1505 1508 1509 1511 1512 1513 1514 1515 1516 1516 1516 1517 1517 1518 1519 1519 1520 1520 1521 1521 1522 1522 1523 1523 1524 1524 1525 1526 1527 1528 1529 1529
1481 1490 1498 1499 1501 1497 1480 1487 1491 1482 1481 1485 1488 1492 1495 1499 1501 1504 1506 1508 1509 1511 1512 1513 1514 1514 1515 1515 1515 1516 1517 1517 1518 1519 1520 1520 1520 1520 1521 1521 1522 1522 1523 1523 1524 1525 1526 1527 1528
1482 1485 1501 1507 1501 1491 1481 1488 1487 1480 1483 1486 1489 1491 1494 1498 1500 1502 1504 1506 1508 1509 1510 1511 1512 1513 1513 1514 1514 1514 1515 1516 1516 1517 1518 1519 1519 1519 1520 1520 1521 1521 1521 1522 1522 1523 1524 1525 1526
1482 1481 1478 1487 1488 1492 1487 1483 1483 1481 1484 1486 1489 1492 1494 1497 1499 1501 1503 1505 1506 1508 1509 1510 1511 1511 1512 1512 1513 1513 1513 1514 1515 1515 1516 1517 1517 1518 1519 1519 1519 1520 1520 1520 1521 1521 1522 1523 1523
1477 1478 1482 1490 1499 1501 1490 1486 1488 1485 1484 1485 1488 1491 1494 1496 1498 1500 1502 1503 1505 1506 1507 1508 1510 1510 1511 1511 1511 1512 1512 1512 1513 1514 1514 1515 1516 1516 1517 1517 1517 1518 1518 1519 1519 1519 1520 1521 1521
1478 1480 1481 1484 1486 1498 1503 1497 1477 1480 1482 1484 1487 1490 1493 1495 1497 1499 1501 1503 1504 1505 1506 1507 1508 1509 1509 1509 1510 1510 1510 1511 1512 1512 1513 1513 1514 1514 1515 1515 1515 1516 1516 1517 1517 1517 1518 1518 1518
1472 1475 1479 1491 1491 1487 1495 1497 1476 1478 1481 1484 1487 1490 1492 1494 1496 1498 1500 1502 1503 1504 1505 1506 1507 1507 1508 1508 1508 1508 1509 1509 1510 1510 1511 1511 1512 1512 1513 1513 1513 1513 1513 1514 1514 1515 1515 1515 1515